Date,TemperatureHighF,TemperatureAvgF,TemperatureLowF,DewpointHighF,DewpointAvgF,DewpointLowF,HumidityHigh,HumidityAvg,HumidityLow,PressureMaxIn,PressureMinIn,WindSpeedMaxMPH,WindSpeedAvgMPH,GustSpeedMaxMPH,PrecipitationSumIn
2014-3-1,17.6,6.6,-0.4,10.5,-0.9,-7.9,77,71,64,29.86,29.50,21,12,23,0.00
2014-3-2,3.6,-0.8,-5.4,-7.2,-11.7,-15.3,72,60,50,29.95,29.83,15,7,17,0.00
2014-3-3,26.6,10.8,-6.1,6.0,-3.5,-15.0,68,53,36,29.91,29.49,18,6,21,0.00
2014-3-4,37.8,25.9,11.9,20.0,12.0,1.8,72,56,39,29.49,29.32,12,5,14,0.00
2014-3-5,33.7,24.9,19.3,20.2,16.0,12.3,77,69,56,29.66,29.45,13,6,15,0.00
2014-3-6,40.0,30.6,23.4,29.8,24.0,17.3,85,77,65,29.64,29.18,22,8,22,0.00
2014-3-7,42.1,34.2,25.9,34.0,26.7,17.9,83,74,63,29.56,29.14,24,10,27,0.00
2014-3-8,39.4,29.2,17.1,20.4,16.8,11.3,79,61,43,29.71,29.56,17,6,23,0.00
2014-3-9,73.3,50.9,27.7,35.8,26.5,16.3,63,42,22,29.62,29.19,22,9,24,0.00
2014-3-10,79.7,59.9,42.8,44.4,35.2,26.8,55,41,26,29.19,29.00,11,4,11,0.00
2014-3-11,55.3,43.6,32.9,36.9,32.9,28.0,86,67,50,29.46,28.87,34,12,34,0.00
2014-3-12,52.9,40.8,27.0,38.1,27.2,22.1,84,61,36,29.56,29.42,21,6,23,0.00
2014-3-13,69.1,58.9,33.5,33.3,26.1,20.2,58,30,22,29.42,29.06,18,7,20,0.00
2014-3-14,58.0,50.8,40.1,32.1,24.3,20.3,62,37,24,29.33,29.03,24,10,26,0.00
2014-3-15,59.8,44.4,28.6,33.8,25.1,19.5,85,48,31,29.61,29.22,25,9,28,0.00
2014-3-16,40.9,31.1,21.1,24.7,15.7,10.1,85,55,31,29.75,29.44,19,8,23,0.00
2014-3-17,61.6,43.3,25.4,29.6,22.7,14.9,69,47,29,29.43,28.83,20,11,25,0.00
2014-3-18,59.8,44.8,30.2,34.4,28.9,24.8,86,55,37,29.19,28.80,22,9,23,0.00
2014-3-19,52.6,40.2,29.9,31.4,27.5,23.9,88,63,37,29.47,29.19,22,9,23,0.00
2014-3-20,65.9,49.1,31.3,33.7,27.9,21.6,70,47,26,29.42,29.20,14,4,14,0.00
2014-3-21,56.3,45.1,29.9,35.9,29.3,21.2,71,55,37,29.61,29.14,28,12,31,0.00
2014-3-22,31.7,26.7,18.9,21.2,10.8,4.1,75,53,33,29.86,29.61,19,10,21,0.00
2014-3-23,49.9,31.8,11.7,21.7,10.5,1.6,66,43,29,29.88,29.63,12,4,12,0.00
2014-3-24,46.3,34.2,24.8,22.5,14.7,11.0,59,45,33,29.65,29.56,26,7,26,0.00
2014-3-25,40.0,30.1,20.3,20.2,10.3,4.3,78,47,24,29.76,29.51,23,8,27,0.00
2014-3-26,65.9,41.7,28.4,38.8,22.2,5.9,77,47,32,29.50,28.97,34,14,34,0.00
2014-3-27,51.5,40.5,32.6,46.8,35.6,26.8,87,83,75,29.22,28.70,27,13,28,0.10
2014-3-28,41.0,33.8,24.5,30.2,25.9,19.3,81,73,60,29.61,29.23,13,5,14,0.00
2014-3-29,58.1,43.4,21.4,37.8,27.7,16.7,83,57,36,29.68,29.42,14,5,17,0.00
2014-3-30,76.0,60.0,44.6,40.3,35.1,30.1,58,42,25,29.42,29.03,26,11,26,0.00
2014-3-31,77.9,53.8,27.2,45.9,32.3,14.0,62,45,28,29.32,28.80,25,14,33,0.00